YAM-3

导读

YAM-3卫星是美国于2021年6月30日发射的卫星,作为美国航天发射活动中的一员,该卫星承担着特定空间任务。从发射时间看,它是美国2021年航天布局的组成部分,依托美国成熟航天发射技术进入预定轨道,服务于美国商业航天或空间探索相关领域,截至2026年3月已在轨运行近五年,持续完成既定空间使命,是美国卫星网络中重要的在轨节点。

Basic Information
目录编号:
48915
目录名称:
YAM-3
国际标识:
2021-059AN
轨道中心:
EARTH
卫星名称:
YAM-3
卫星全名:
--
卫星状态:
在轨 (已飞行1893 天)
发射日期:
2021-06-30 UTC
国别 :
美国 (US)
星等 :
--
Orbit Information
数据来源 国际轨道数据
星历时间: 2026-09-05T14:44:47+0800
6小时前
查看轨道信息
半长轴: 6794.464km
偏心率: 0.0006305
轨道倾角: 97.700°
近地点辐角 73.643°
升交点赤经 80.580°
平近点角 286.552°
近地点: 412.043km
远地点: 420.611km
周期: 92.895分钟
每日圈数: 15.501368
Detailed Information
使用方式:
暂无
2D Orbit Map
3D Orbit Map
Orbit Altitude Analysis Chart
Orbit Inclination Analysis Chart
Orbit Comprehensive Analysis Chart
View Comprehensive Chart
Conjunction Data List
Event ID Objects TCA Miss Dist (km) Collision Risk Probability Collision Risk Index (CRI) Action
CDM_260907-213404-891506-963022
YAM-3 (48915)
2026-09-07T
21:34:30+0000
0.810 km
远距离
5.479606E-5 中风险 0.7
CDM_260908-035404-814304-891521
YAM-3 (48915)
2026-09-08T
03:54:32+0000
1.592 km
极远距离
5.122689E-6 低风险 0.49
CDM_260906-101304-891505-620924
YAM-3 (48915)
2026-09-06T
10:13:13+0000
2.185 km
极远距离
1.753012E-6 低风险 0.4